Location: Unspecified
(48.5539°N, 71.6350°W)
Time: 22:41:53
(UTC-05:00)

ISS - Pass Details

Date: 23 January 2019
Orbit: 403 x 411 km, 51.6° (Epoch: 21 February)

Event Time Altitude Azimuth Distance (km) Brightness Sun altitude
Rises 00:24:27 0° 290° (WNW) 2,351 - -60.5°
Reaches altitude 10° 00:26:37 10° 283° (WNW) 1,487 - -60.4°
Maximum altitude 00:29:46 40° 213° (SSW) 623 - -60.3°
Drops below altitude 10° 00:32:54 10° 142° (SE) 1,480 - -60.1°
Sets 00:35:03 0° 134° (SE) 2,338 - -60.0°
